This is the latest recevied weather packets stored in our database for station/object WB0OCV. If no packets are shown the sender has not sent any weather packets the latest 10 day(s).
| Time | Temp. | Humidity | Pressure | Rain* | Wind** | Luminosity | Snow |
|---|---|---|---|---|---|---|---|
| 1777705687 | 6.11° C | 95% | 1014.6 hPa | 0 mm | - | 0 W/m² | - |
| 1777705384 | 6.11° C | 94% | 1014.4 hPa | 0 mm | - | 0 W/m² | - |
| 1777705083 | 6.67° C | 93% | 1014.7 hPa | 0 mm | - | 0 W/m² | - |
| 1777704780 | 6.67° C | 92% | 1014.5 hPa | 0 mm | - | 0 W/m² | - |
| 1777704478 | 7.22° C | 92% | 1014.5 hPa | 0 mm | - | 0 W/m² | - |
| 1777704175 | 7.22° C | 91% | 1014.6 hPa | 0 mm | - | 0 W/m² | - |
| 1777703873 | 7.78° C | 90% | 1014.7 hPa | 0 mm | - | 0 W/m² | - |
| 1777703571 | 7.78° C | 90% | 1014.7 hPa | 0 mm | - | 0 W/m² | - |
| 1777703268 | 7.78° C | 89% | 1014.7 hPa | 0 mm | - | 0 W/m² | - |
| 1777702965 | 7.78° C | 89% | 1014.5 hPa | 0 mm | - | 0 W/m² | - |
| 1777702664 | 7.78° C | 88% | 1014.5 hPa | 0 mm | - | 0 W/m² | - |
| 1777702362 | 8.33° C | 87% | 1014.6 hPa | 0 mm | - | 0 W/m² | - |
| 1777702061 | 8.33° C | 87% | 1014.5 hPa | 0 mm | - | 0 W/m² | - |
| 1777701757 | 8.33° C | 86% | 1014.6 hPa | 0 mm | - | 0 W/m² | - |
| 1777701456 | 8.33° C | 86% | 1014.8 hPa | 0 mm | - | 0 W/m² | - |
| 1777701153 | 7.78° C | 87% | 1014.8 hPa | 0 mm | - | 0 W/m² | - |
| 1777700852 | 7.78° C | 88% | 1014.6 hPa | 0 mm | - | 0 W/m² | - |
| 1777700549 | 7.22° C | 89% | 1014.8 hPa | 0 mm | - | 0 W/m² | - |
| 1777700247 | 7.22° C | 91% | 1014.7 hPa | 0 mm | - | 0 W/m² | - |
| 1777699944 | 6.67° C | 92% | 1014.9 hPa | 0 mm | - | 0 W/m² | - |
| 1777699642 | 6.67° C | 92% | 1014.8 hPa | 0 mm | - | 0 W/m² | - |
| 1777699340 | 7.22° C | 91% | 1014.9 hPa | 0 mm | - | 0 W/m² | - |
| 1777699037 | 7.22° C | 90% | 1014.8 hPa | 0 mm | - | 0 W/m² | - |
| 1777698736 | 7.78° C | 89% | 1014.8 hPa | 0 mm | - | 0 W/m² | - |
| 1777698431 | 7.78° C | 89% | 1014.7 hPa | 0 mm | - | 0 W/m² | - |
* Rain latest hour (hover to see other rain measurements)
** Current wind speed in m/s (hover to see current wind gust speed)